Regional Weather Roundup
Issued by NWS Goodland, KS

Home | Current Version | Previous Version | Graphics & Text | Print | Product List | Glossary On
Versions: 1 2 3 4 5 6 7 8 9 10 11 12 13 14 15 16 17 18 19 20 21 22 23 24 25 26 27 28 29 30 31 32 33 34 35 36 37 38 39 40 41 42 43 44 45 46 47 48 49 50
000
ASUS43 KGLD 221859
RWRGLD

GOODLAND FORECAST AREA HOURLY WEATHER ROUNDUP
NATIONAL WEATHER SERVICE GOODLAND KS
100 PM MDT MON MAY 22 2017

...OFFICIAL OBSERVATIONS...

CITY           SKY/WX    TMP DP  RH WIND       PRES   REMARKS
GOODLAND KS    MOSUNNY   66  43  43 NW10G20   30.03F
HILL CITY KS   CLOUDY    69  48  47 VRB7      30.00F
IMPERIAL NEB   PTSUNNY   65  40  39 N13G24    30.01F
MCCOOK NEB     MOSUNNY   75  38  26 NW16G23   29.96F
AKRON CO       CLOUDY    60  37  42 W13       30.07F
BURLINGTON CO  MOSUNNY   68  38  33 NW13      30.06F
LIMON CO       MOSUNNY   63  33  32 NW14G26   30.12F
$$

...UNOFFICIAL OBSERVATIONS...

CITY           SKY/WX    TMP DP  RH WIND       PRES   REMARKS
LENORA KS        N/A     68  32  26 MISG        N/A
NORTON KS      MOSUNNY   70  43  37 W7G16     29.98F
SHARON SPRINGS   N/A     66  49  55 NW8         N/A
TRENTON NEB      N/A     70  32  24 NW8         N/A
KIT CARSON CO    N/A     65  39  39 MISG        N/A
$$




USA.gov is the U.S. government's official web portal to all federal, state and local government web resources and services.